Flag for Germany Weather past 2 weeks in Wilhelmshaven, Lower Saxony, Germany

Now
68 °F

Passing clouds.


Feels Like: 68 °F
Forecast: 56 / 66 °F
Wind: 10 mph from Southwest

Location: Wittmundhaven

Current Time: Oct 1, 2014 at 4:26:26 PM

Latest Report: Oct 1, 2014 at 3:20 PM


Visibility: N/A

Pressure: 30.27 "Hg

Humidity: 69%

Dew point: 57 °F

Location of WilhelmshavenLocation

Historic Weather in Wilhelmshaven — Graph

°F

Wilhelmshaven temperature yesterday

Maximum temperature yesterday: 66 °F (at 2:20 PM)
Minimum temperature yesterday: 59 °F (at 6:20 AM)
Average temperature yesterday: 62 °F

Past Weeks' High & Low Weather Summary

 TemperatureHumidityPressure
High75 °F (Sep 17, 3:20 PM)100% (Sep 19, 6:20 AM)30.36 "Hg (Sep 19, 6:20 AM)
Low45 °F (Sep 23, 6:20 AM)49% (Sep 27, 1:20 PM)29.74 "Hg (Sep 24, 5:20 PM)
Average60 °F82%30.05 "Hg
* Reported Sep 16 3:20 PM — Oct 1 3:20 PM, Wilhelmshaven, Weather by CustomWeather, © 2014

Note: Actual official high and low records may vary slightly from our data, if they occured in-between our weather recording intervals... More about our weather records

Advertising

Wilhelmshaven weather history for previous 24 hours

 ConditionsComfort  
Time TempWeatherWind HumidityBarometerVisibility
3:20 PM
Oct 1
68 °FPassing clouds.10 mph69%30.27 "HgN/A
2:20 PM68 °FScattered clouds.9 mph69%30.27 "HgN/A
1:20 PM64 °FScattered clouds.9 mph83%30.27 "Hg4 mi
12:20 PM61 °FFog.8 mph88%30.27 "Hg3 mi
11:20 AM59 °FFog.6 mph94%30.27 "Hg1 mi
10:20 AM57 °FFog.7 mph100%30.27 "Hg1 mi
9:20 AM55 °FFog.5 mph94%30.27 "Hg0 mi
8:20 AM54 °FFog.5 mph100%30.27 "Hg0 mi
7:46 AM54 °FFog.3 mph100%30.24 "Hg1 mi
7:20 AM54 °FFog.3 mph94%30.24 "Hg1 mi
6:20 AM54 °FCool.2 mph100%30.27 "Hg1 mi
5:20 AM54 °FCool.3 mph94%30.27 "Hg1 mi
4:20 AM52 °FCool.2 mph100%30.27 "Hg0 mi
3:20 AM52 °FCool.5 mph100%30.27 "Hg0 mi
2:20 AM54 °FCool.3 mph94%30.27 "Hg0 mi
1:20 AM54 °FCool.5 mph94%30.27 "Hg2 mi
12:20 AM55 °FCool.5 mph94%30.24 "Hg1 mi
11:20 PM
Sep 30
59 °FCool.5 mph88%30.24 "Hg2 mi
10:20 PM59 °FCool.5 mph88%30.24 "Hg3 mi
10:03 PM61 °FPassing clouds.6 mph88%30.24 "Hg4 mi
8:20 PM63 °FPassing clouds.6 mph83%30.24 "Hg4 mi
7:20 PM63 °FBroken clouds.6 mph88%30.24 "Hg4 mi
6:20 PM63 °FPartly sunny.7 mph88%30.21 "Hg4 mi
5:20 PM64 °FPartly sunny.8 mph83%30.21 "Hg5 mi
4:20 PM64 °FBroken clouds.7 mph83%30.21 "HgN/A
Weather by CustomWeather, © 2014

See weather overviewHow to use our weather pages